GW0774 Weather Reports


time (UTC)temp
C
wind
direction
speed
KPH
gust
KPH
rain 1hr
cm
rain 24hr
cm
rain mn
cm
humidity
%
barometer
mb
20260903021607 15 248 20.9 30.6 0.00 0.00 0.00 80 1013.8
20260903021038 15 262 19.3 32.2 0.00 0.00 0.00 80 1013.8
20260903020539 15 256 20.9 33.8 0.00 0.00 0.00 81 1013.9
20260903020058 15 253 22.5 33.8 0.00 0.00 0.00 79 1013.8
20260903015537 15 299 20.9 33.8 0.00 0.00 0.00 79 1013.9
20260903015038 15 240 20.9 41.8 0.00 0.00 0.00 80 1014.0
20260903014551 15 252 22.5 41.8 0.00 0.00 0.00 80 1014.0
20260903014039 15 241 20.9 35.4 0.00 0.00 0.00 80 1014.1
20260903013539 15 261 19.3 35.4 0.00 0.00 0.00 79 1014.0
20260903013105 16 234 17.7 32.2 0.00 0.00 0.00 78 1014.2
20260903012539 16 257 19.3 32.2 0.00 0.00 0.00 79 1014.3
20260903012039 16 221 17.7 30.6 0.00 0.00 0.00 77 1014.4
20260903011606 15 250 16.1 35.4 0.00 0.00 0.00 78 1014.4
20260903011039 15 238 22.5 35.4 0.00 0.00 0.00 77 1014.4
20260903010539 15 310 14.5 33.8 0.00 0.00 0.00 77 1014.5
20260903010110 15 241 17.7 30.6 0.00 0.00 0.00 77 1014.7
20260903005541 15 230 17.7 30.6 0.00 0.00 0.00 78 1014.9
20260903005039 15 246 17.7 32.2 0.00 0.00 0.00 77 1014.8
20260903004557 15 253 17.7 32.2 0.00 0.00 0.00 79 1015.0
20260903004039 15 258 17.7 35.4 0.00 0.00 0.00 79 1015.0
20260903003539 15 237 16.1 35.4 0.00 0.00 0.00 79 1015.1
20260903003114 15 259 16.1 32.2 0.00 0.00 0.00 79 1015.0
20260903002539 15 250 16.1 32.2 0.00 0.00 0.00 79 1015.1
20260903002039 15 260 19.3 32.2 0.00 0.00 0.00 80 1015.0
20260903001602 15 265 16.1 33.8 0.00 0.00 0.00 79 1015.2
20260903001038 15 282 14.5 37.0 0.00 0.00 0.00 81 1015.2
20260903000538 15 277 25.7 37.0 0.00 0.00 0.00 78 1015.2
20260903000104 15 286 16.1 33.8 0.00 0.00 0.00 79 1015.2
20260902235538 16 311 14.5 38.6 0.00 0.00 0.00 82 1015.2
20260902235040 15 234 17.7 38.6 0.00 0.00 0.00 80 1015.3
20260902234555 15 311 22.5 38.6 0.00 0.00 0.00 81 1015.3
20260902234038 15 300 19.3 35.4 0.00 0.00 0.00 81 1015.4
20260902233539 15 278 20.9 35.4 0.00 0.00 0.00 82 1015.3
20260902233059 15 259 17.7 29.0 0.00 0.00 0.00 81 1015.4
20260902232540 15 239 16.1 33.8 0.00 0.00 0.00 82 1015.5
20260902232039 15 288 17.7 33.8 0.00 0.00 0.00 82 1015.3
20260902231559 15 241 16.1 30.6 0.00 0.00 0.00 82 1015.3
20260902231043 15 273 12.9 35.4 0.00 0.00 0.00 82 1015.3
20260902230544 15 284 20.9 35.4 0.00 0.00 0.00 82 1015.4
20260902230058 15 293 17.7 33.8 0.00 0.00 0.00 84 1015.7
20260902225540 15 266 20.9 33.8 0.00 0.00 0.00 81 1015.8
20260902225039 15 279 17.7 27.4 0.00 0.00 0.00 83 1015.7
20260902224557 15 290 19.3 38.6 0.00 0.00 0.00 83 1015.6
20260902224039 15 289 22.5 38.6 0.00 0.00 0.00 83 1015.7
20260902223541 15 313 19.3 33.8 0.00 0.00 0.00 82 1015.7
20260902223055 15 254 19.3 37.0 0.00 0.00 0.00 82 1015.7
20260902222541 15 270 24.1 37.0 0.00 0.00 0.00 82 1015.7
20260902222043 15 241 17.7 38.6 0.00 0.00 0.00 83 1015.7
20260902221617 14 279 20.9 40.2 0.00 0.00 0.00 84 1015.6
20260902221040 14 271 24.1 40.2 0.00 0.00 0.00 83 1015.6
20260902220540 14 246 20.9 32.2 0.00 0.00 0.00 83 1015.6
20260902220058 14 304 20.9 32.2 0.00 0.00 0.00 84 1015.8
20260902215537 14 276 20.9 33.8 0.00 0.00 0.00 84 1015.8
20260902215043 14 250 17.7 33.8 0.00 0.00 0.00 84 1015.6
20260902214557 13 290 17.7 33.8 0.00 0.00 0.00 85 1015.5
20260902214039 13 271 19.3 32.2 0.00 0.00 0.00 85 1015.6
20260902213535 13 286 19.3 32.2 0.00 0.00 0.00 85 1015.6
20260902213053 13 276 22.5 32.2 0.00 0.00 0.00 85 1015.7
20260902212537 13 269 16.1 30.6 0.00 0.00 0.00 85 1015.7
20260902212035 13 288 17.7 30.6 0.00 0.00 0.00 85 1015.8
20260902211612 13 287 14.5 24.1 0.00 0.00 0.00 85 1015.8
20260902211037 13 270 14.5 24.1 0.00 0.00 0.00 85 1015.8
20260902210537 13 279 12.9 24.1 0.00 0.00 0.00 85 1015.8
20260902210100 12 271 11.3 22.5 0.00 0.00 0.00 85 1015.8
20260902205539 12 274 11.3 22.5 0.00 0.00 0.00 86 1015.9
20260902205036 12 283 12.9 24.1 0.00 0.00 0.00 85 1015.7
20260902204555 12 260 12.9 24.1 0.00 0.00 0.00 85 1015.7
20260902204039 12 275 11.3 27.4 0.00 0.00 0.00 85 1015.8
20260902203536 12 273 11.3 27.4 0.00 0.00 0.00 85 1015.8
20260902203051 12 269 12.9 22.5 0.00 0.00 0.00 85 1015.7
20260902202536 12 291 12.9 22.5 0.00 0.00 0.00 86 1015.7
20260902202037 11 265 11.3 17.7 0.00 0.00 0.00 86 1015.7
20260902201609 11 290 11.3 17.7 0.00 0.00 0.00 86 1015.6
20260902201035 11 281 9.7 16.1 0.00 0.00 0.00 86 1015.7
20260902200536 11 257 9.7 16.1 0.00 0.00 0.00 86 1015.6
20260902200104 11 277 6.4 14.5 0.00 0.00 0.00 86 1015.8
20260902195539 11 265 6.4 17.7 0.00 0.00 0.00 86 1015.7
20260902195036 11 269 6.4 17.7 0.00 0.00 0.00 86 1015.6
20260902194556 11 260 8.0 17.7 0.00 0.00 0.00 87 1015.6
20260902194038 11 266 3.2 9.7 0.00 0.00 0.00 87 1015.5
20260902193539 11 249 3.2 9.7 0.00 0.00 0.00 87 1015.6
20260902193051 11 244 3.2 9.7 0.00 0.00 0.00 87 1015.5
20260902192538 11 257 1.6 14.5 0.00 0.00 0.00 87 1015.5
20260902192040 11 290 4.8 14.5 0.00 0.00 0.00 87 1015.4
20260902191549 11 273 3.2 16.1 0.00 0.00 0.00 87 1015.3
20260902191037 11 300 3.2 22.5 0.00 0.00 0.00 87 1015.2
20260902190535 11 258 6.4 22.5 0.00 0.00 0.00 87 1015.2
20260902190057 11 46 12.9 22.5 0.00 0.00 0.00 87 1015.0
20260902185536 11 327 14.5 27.4 0.00 0.00 0.00 87 1014.9
20260902185038 11 304 16.1 27.4 0.00 0.00 0.00 87 1014.7
20260902184557 11 273 14.5 24.1 0.00 0.00 0.00 87 1014.8
20260902184036 11 263 14.5 24.1 0.00 0.00 0.00 87 1014.9
20260902183536 11 290 12.9 22.5 0.00 0.00 0.00 87 1014.9
20260902183057 11 282 9.7 24.1 0.00 0.00 0.00 87 1014.8
20260902182535 11 262 12.9 24.1 0.00 0.00 0.00 88 1014.8
20260902182103 11 280 16.1 22.5 0.00 0.00 0.00 88 1014.8
20260902181614 11 277 12.9 19.3 0.00 0.00 0.00 89 1014.8
20260902181035 11 277 12.9 20.9 0.00 0.00 0.00 89 1014.7
20260902180536 12 269 14.5 22.5 0.00 0.00 0.00 89 1014.9
20260902175538 12 263 11.3 25.7 0.00 0.00 0.00 90 1015.0
20260902175044 12 279 16.1 25.7 0.00 0.00 0.00 90 1014.9
20260902174554 12 290 16.1 25.7 0.00 0.00 0.00 90 1015.0
20260902174036 12 273 14.5 25.7 0.00 0.00 0.00 90 1014.9
20260902173536 12 269 16.1 30.6 0.00 0.00 0.00 90 1015.0
20260902173101 12 264 16.1 30.6 0.00 0.00 0.00 90 1015.0
20260902172541 12 272 16.1 27.4 0.00 0.00 0.00 90 1015.0
20260902172035 12 261 16.1 27.4 0.00 0.00 0.00 90 1015.0
20260902171609 12 280 14.5 25.7 0.00 0.00 0.00 90 1014.9
20260902171036 12 265 14.5 25.7 0.00 0.00 0.00 90 1014.9
20260902170536 12 287 17.7 27.4 0.00 0.00 0.00 90 1015.1
20260902170051 12 271 16.1 27.4 0.00 0.00 0.00 90 1015.1
20260902165540 12 277 16.1 27.4 0.00 0.00 0.00 90 1015.0
20260902165036 12 265 16.1 24.1 0.00 0.00 0.00 90 1014.7
20260902164557 12 277 14.5 25.7 0.00 0.00 0.00 89 1014.9
20260902164040 12 273 16.1 25.7 0.00 0.00 0.00 89 1014.7
20260902163538 12 299 16.1 25.7 0.00 0.00 0.00 89 1014.7
20260902163057 12 288 14.5 24.1 0.00 0.00 0.00 89 1014.9
20260902162537 12 277 11.3 27.4 0.00 0.00 0.00 89 1015.0
20260902162036 12 300 11.3 27.4 0.00 0.00 0.00 89 1015.0
20260902161600 12 271 16.1 27.4 0.00 0.00 0.00 89 1014.7
20260902161042 12 273 12.9 25.7 0.00 0.00 0.00 89 1014.6
20260902160543 12 300 16.1 32.2 0.00 0.00 0.00 90 1014.5
20260902160049 12 299 19.3 32.2 0.00 0.00 0.00 90 1014.4
20260902155539 12 288 19.3 30.6 0.00 0.00 0.00 89 1014.3
20260902155036 12 271 19.3 30.6 0.00 0.00 0.00 89 1014.3
20260902154611 12 266 17.7 27.4 0.00 0.00 0.00 89 1014.2
20260902154035 12 263 14.5 30.6 0.00 0.00 0.00 89 1014.2
20260902153539 12 292 17.7 30.6 0.00 0.00 0.00 89 1014.3
20260902153059 12 250 17.7 25.7 0.00 0.00 0.00 89 1014.3
20260902152539 12 265 16.1 24.1 0.00 0.00 0.00 89 1014.2
20260902152039 12 265 12.9 25.7 0.00 0.00 0.00 89 1014.3
20260902151555 12 263 12.9 25.7 0.00 0.00 0.00 89 1014.3
20260902151036 12 286 14.5 25.7 0.00 0.00 0.00 89 1014.4
20260902150539 12 236 12.9 24.1 0.00 0.00 0.00 89 1014.3
20260902150051 12 248 12.9 25.7 0.00 0.00 0.00 89 1014.3
20260902145539 12 259 11.3 32.2 0.00 0.00 0.00 89 1014.3
20260902145035 12 255 17.7 32.2 0.00 0.00 0.00 89 1014.3
20260902144558 12 305 22.5 32.2 0.00 0.00 0.00 89 1014.2
20260902144036 12 292 20.9 32.2 0.00 0.00 0.00 89 1014.2
20260902143539 12 273 19.3 32.2 0.00 0.00 0.00 89 1014.2
20260902143058 12 269 20.9 32.2 0.00 0.00 0.00 89 1014.3
20260902142536 12 269 17.7 27.4 0.00 0.00 0.00 89 1014.4
20260902142036 12 263 17.7 25.7 0.00 0.00 0.00 89 1014.6
20260902141550 12 261 16.1 22.5 0.00 0.00 0.00 89 1014.7
20260902141038 12 249 11.3 27.4 0.00 0.00 0.00 89 1014.7
20260902140540 12 279 12.9 27.4 0.00 0.00 0.00 89 1014.8
20260902140048 12 279 16.1 27.4 0.00 0.00 0.00 89 1014.6
20260902135535 12 279 16.1 29.0 0.00 0.00 0.00 89 1014.5
20260902135036 12 291 16.1 30.6 0.00 0.00 0.00 89 1014.5
20260902134547 12 289 19.3 33.8 0.00 0.00 0.00 89 1014.5
20260902134038 12 283 19.3 37.0 0.00 0.00 0.00 89 1014.3
20260902133536 12 283 22.5 37.0 0.00 0.00 0.00 89 1014.4
20260902133102 12 288 20.9 38.6 0.00 0.00 0.00 89 1014.3
20260902132536 12 309 20.9 38.6 0.00 0.00 0.00 89 1014.1
20260902132036 12 270 22.5 38.6 0.00 0.00 0.00 89 1014.0
20260902131552 12 279 12.9 25.7 0.00 0.00 0.00 89 1014.2
20260902131044 12 259 12.9 30.6 0.00 0.00 0.00 89 1014.3
20260902130541 12 277 17.7 33.8 0.00 0.00 0.00 90 1014.0
20260902130058 12 270 16.1 33.8 0.00 0.00 0.00 90 1013.8
20260902125540 12 279 17.7 30.6 0.00 0.00 0.00 90 1013.6
20260902125039 12 299 19.3 30.6 0.00 0.00 0.00 90 1013.6
20260902124605 12 241 16.1 29.0 0.00 0.00 0.00 90 1013.7
20260902124038 12 278 16.1 30.6 0.00 0.00 0.00 90 1013.7
20260902123538 12 262 16.1 30.6 0.00 0.00 0.00 90 1013.7
20260902123053 12 273 14.5 24.1 0.00 0.00 0.00 90 1013.8
20260902122539 12 264 14.5 24.1 0.00 0.00 0.00 90 1014.0
20260902122039 12 268 12.9 22.5 0.00 0.00 0.00 91 1014.0
20260902121550 12 240 9.7 20.9 0.00 0.00 0.00 91 1014.1
20260902121039 12 274 9.7 20.9 0.00 0.00 0.00 91 1014.1
20260902120539 12 293 11.3 20.9 0.00 0.00 0.00 90 1014.3
20260902120059 12 295 11.3 22.5 0.00 0.00 0.00 90 1014.3
20260902115538 12 315 12.9 24.1 0.00 0.00 0.00 90 1014.3
20260902115040 12 271 12.9 24.1 0.00 0.00 0.00 90 1014.4
20260902114557 12 268 12.9 25.7 0.00 0.00 0.00 90 1014.4
20260902114038 12 273 14.5 27.4 0.00 0.00 0.00 90 1014.3
20260902113538 12 284 17.7 41.8 0.00 0.00 0.00 90 1014.2
20260902113055 12 252 17.7 41.8 0.00 0.00 0.00 90 1014.2
20260902112541 12 339 25.7 41.8 0.00 0.00 0.00 90 1014.1
20260902112037 12 273 14.5 30.6 0.00 0.00 0.00 90 1013.9
20260902111559 12 273 16.1 27.4 0.00 0.00 0.00 90 1014.1
20260902111040 12 286 14.5 32.2 0.00 0.00 0.00 89 1014.1
20260902110540 12 290 17.7 32.2 0.00 0.00 0.00 89 1014.2
20260902110046 12 275 16.1 32.2 0.00 0.00 0.00 89 1014.1
20260902105538 12 272 14.5 29.0 0.00 0.00 0.00 89 1014.3
20260902105043 12 272 14.5 24.1 0.00 0.00 0.00 89 1014.4
20260902104557 12 308 16.1 24.1 0.00 0.00 0.00 89 1014.4
20260902104038 12 280 12.9 24.1 0.00 0.00 0.00 90 1014.4
20260902103541 12 276 12.9 20.9 0.00 0.00 0.00 90 1014.4
20260902103100 12 291 11.3 20.9 0.00 0.00 0.00 90 1014.5
20260902102539 12 274 11.3 22.5 0.00 0.00 0.00 90 1014.6
20260902102040 12 267 12.9 22.5 0.00 0.00 0.00 91 1014.9
20260902101556 12 269 11.3 22.5 0.00 0.00 0.00 91 1015.0
20260902101039 12 308 9.7 17.7 0.00 0.00 0.00 91 1015.0
20260902100539 12 281 6.4 17.7 0.00 0.00 0.00 91 1015.0
20260902100048 12 290 4.8 11.3 0.00 0.00 0.00 91 1015.0
20260902095539 12 261 4.8 12.9 0.00 0.00 0.00 90 1014.8
20260902095038 12 270 4.8 12.9 0.00 0.00 0.00 90 1014.9
20260902094557 12 271 8.0 17.7 0.00 0.00 0.00 90 1014.8
20260902094036 12 296 6.4 17.7 0.00 0.00 0.00 90 1014.7
20260902093536 12 303 8.0 17.7 0.00 0.00 0.00 91 1015.1
20260902093125 12 263 4.8 12.9 0.00 0.00 0.00 91 1015.1
20260902092539 12 270 4.8 12.9 0.00 0.00 0.00 91 1015.1
20260902092041 12 252 6.4 14.5 0.00 0.00 0.00 91 1015.1
20260902091600 12 53 4.8 14.5 0.00 0.00 0.00 91 1015.0
20260902091040 12 264 4.8 12.9 0.00 0.00 0.00 91 1014.8
20260902090539 11 281 3.2 6.4 0.00 0.00 0.00 91 1014.7
20260902090101 12 290 1.6 6.4 0.00 0.00 0.00 91 1015.0
20260902085538 12 277 3.2 9.7 0.00 0.00 0.00 90 1015.1
20260902085038 12 273 4.8 9.7 0.00 0.00 0.00 90 1015.3
20260902084559 12 273 3.2 9.7 0.00 0.00 0.00 90 1015.1
20260902084039 12 254 3.2 14.5 0.00 0.00 0.00 90 1015.1
20260902083535 12 260 3.2 14.5 0.00 0.00 0.00 89 1015.0
20260902083056 12 279 4.8 14.5 0.00 0.00 0.00 89 1015.1
20260902082535 12 277 6.4 14.5 0.00 0.00 0.00 89 1015.2
20260902082038 12 261 8.0 14.5 0.00 0.00 0.00 88 1015.2
20260902081610 12 268 3.2 29.0 0.00 0.00 0.00 88 1015.1
20260902081039 12 272 12.9 30.6 0.00 0.00 0.00 87 1015.1
20260902080539 12 298 20.9 30.6 0.00 0.00 0.00 87 1015.0
20260902080049 12 254 17.7 30.6 0.00 0.00 0.00 88 1015.0
20260902075538 12 302 17.7 30.6 0.00 0.00 0.00 88 1014.8
20260902075039 12 330 14.5 25.7 0.00 0.00 0.00 87 1014.8
20260902074559 12 288 14.5 25.7 0.00 0.00 0.00 87 1014.8
20260902074039 12 277 11.3 22.5 0.00 0.00 0.00 87 1014.7
20260902073538 12 279 11.3 22.5 0.00 0.00 0.00 87 1014.9
20260902073055 12 296 12.9 22.5 0.00 0.00 0.00 87 1014.8
20260902072539 12 275 16.1 25.7 0.00 0.00 0.00 86 1014.9
20260902072035 12 313 14.5 25.7 0.00 0.00 0.00 86 1015.0
20260902071601 12 294 14.5 25.7 0.00 0.00 0.00 86 1014.9
20260902071038 12 298 12.9 25.7 0.00 0.00 0.00 86 1015.0
20260902070538 12 267 14.5 27.4 0.00 0.00 0.00 86 1015.0
20260902070051 12 268 9.7 27.4 0.00 0.00 0.00 86 1015.0
20260902065539 12 282 12.9 27.4 0.00 0.00 0.00 86 1015.0
20260902065039 12 257 14.5 27.4 0.00 0.00 0.00 86 1014.8
20260902064558 12 280 16.1 33.8 0.00 0.00 0.00 86 1014.8
20260902064039 12 273 17.7 33.8 0.00 0.00 0.00 87 1014.8
20260902063538 12 269 19.3 29.0 0.00 0.00 0.00 87 1014.9
20260902063058 12 290 14.5 27.4 0.00 0.00 0.00 88 1014.8
20260902062541 12 263 19.3 33.8 0.00 0.00 0.00 88 1014.7
20260902062038 12 284 20.9 33.8 0.00 0.00 0.00 88 1014.5
20260902061554 12 296 20.9 43.5 0.00 0.00 0.00 88 1014.5
20260902061038 12 247 24.1 43.5 0.00 0.00 0.00 88 1014.3
20260902060537 12 293 19.3 38.6 0.00 0.00 0.00 88 1014.0
20260902060056 12 269 20.9 37.0 0.00 0.00 0.00 87 1014.0
20260902055538 12 317 14.5 30.6 0.00 0.00 0.00 87 1014.0
20260902055039 12 236 14.5 30.6 0.00 0.00 0.00 87 1014.2
20260902054559 12 260 14.5 38.6 0.00 0.00 0.00 87 1014.1
20260902054035 12 240 16.1 38.6 0.00 0.00 0.00 86 1014.2
20260902053538 12 300 14.5 37.0 0.00 0.00 0.00 86 1014.1
20260902053057 12 271 19.3 40.2 0.00 0.00 0.00 86 1014.0
20260902052543 13 277 22.5 41.8 0.00 0.00 0.00 86 1014.0
20260902052039 13 292 24.1 41.8 0.00 0.00 0.00 85 1014.0
20260902051554 13 250 20.9 41.8 0.00 0.00 0.00 84 1013.8
20260902051039 13 303 22.5 53.1 0.00 0.00 0.00 84 1013.8
20260902050538 13 234 24.1 53.1 0.00 0.00 0.00 84 1013.6
20260902050112 13 288 27.4 43.5 0.00 0.00 0.00 83 1013.5
20260902045538 13 265 22.5 41.8 0.00 0.00 0.00 82 1013.6
20260902045038 13 298 17.7 41.8 0.00 0.00 0.00 82 1013.7
20260902044609 13 336 20.9 37.0 0.00 0.00 0.00 82 1013.6
20260902044041 13 252 20.9 35.4 0.00 0.00 0.00 82 1013.8
20260902043540 13 246 19.3 37.0 0.00 0.00 0.00 81 1013.6
20260902043056 13 286 14.5 38.6 0.00 0.00 0.00 81 1013.8
20260902042540 13 314 19.3 38.6 0.00 0.00 0.00 81 1013.8
20260902042041 13 314 14.5 41.8 0.00 0.00 0.00 82 1014.0
20260902041552 13 294 20.9 41.8 0.00 0.00 0.00 83 1014.3
20260902041040 13 309 24.1 40.2 0.00 0.00 0.00 82 1014.2
20260902040539 13 264 19.3 35.4 0.00 0.00 0.00 82 1014.2
20260902040054 13 275 16.1 35.4 0.00 0.00 0.00 81 1014.3
20260902035538 14 292 16.1 30.6 0.00 0.00 0.00 79 1014.2
20260902035038 14 298 16.1 33.8 0.00 0.00 0.00 78 1014.3
20260902034604 14 309 16.1 38.6 0.00 0.00 0.00 78 1014.4
20260902034038 14 252 19.3 38.6 0.00 0.00 0.00 77 1014.5
20260902033538 14 253 16.1 45.1 0.00 0.00 0.00 77 1014.6
20260902033104 14 244 24.1 45.1 0.00 0.00 0.00 77 1014.6
20260902032642 14 313 20.9 45.1 0.00 0.00 0.00 78 1014.6
20260902032039 14 277 19.3 43.5 0.00 0.00 0.00 77 1014.6
20260902031557 13 240 17.7 51.5 0.00 0.00 0.00 79 1014.5
20260902031040 13 273 16.1 51.5 0.00 0.00 0.00 80 1014.4
20260902030539 13 272 20.9 46.7 0.00 0.00 0.00 80 1014.4
20260902030046 13 333 17.7 46.7 0.00 0.00 0.00 83 1014.6
20260902025539 13 342 19.3 38.6 0.00 0.00 0.00 83 1014.6
20260902025039 13 307 19.3 35.4 0.00 0.00 0.00 82 1014.6
20260902024608 13 284 17.7 41.8 0.00 0.00 0.00 82 1014.5
20260902024041 14 262 20.9 41.8 0.00 0.00 0.00 81 1014.7
20260902023539 14 264 19.3 37.0 0.00 0.00 0.00 80 1014.6
20260902023058 14 275 12.9 35.4 0.00 0.00 0.00 82 1014.7
20260902022539 14 248 22.5 35.4 0.00 0.00 0.00 79 1014.6
20260902022036 14 283 22.5 32.2 0.00 0.00 0.00 79 1014.7